www.pogodaiklimat.ru

Погода и климат >> Архив погоды >> Россия >> Камчатский край >> Водопадная


ПОГОДА в Водопадной

  • Прогноз погоды в Водопадной
  • Монитор погоды в Водопадной

АРХИВ ПОГОДЫ в Водопадной

Время (UTC), дата Ветер
(напр.,м/с)
 
Видим.   Явления Облачность Т
(С)
Тd
(С)
f
(%)
Тe
(С)
Тes
(С)
Комфортность P
(гПа)
Po
(гПа)
Тmin
(С)
Tmax
(С)
R
(мм)
R24
(мм)
S
(см)
21 11.09 ЮЗ 2 20 км 3/0
[Ci fib]
+11.2 +4.8 65 +10 +12 1011.1 1008.6 +5.9
03 12.09 ЮВ 3 20 км 4/0
[Ci fib]
+14.0 +4.8 54 +13 +19 1010.8 1008.3
09 12.09 С 3 20 км 10/0
[Ac trans]
+6.8 +5.0 88 +4 +4 1011.7 1009.1 +16.5
15 12.09 СВ 2 20 км 10/8 1000 м
[Sc Ci fib]
+6.1 +5.2 94 +4 +4 1010.8 1008.2
21 12.09 В 2 20 км 10/10 600 м
[Sc]
+10.9 +6.2 73 +10 +10 1011.0 1008.4 +4.5
00 13.09 СВ 4-10
{11}
20 км 10/3 1000 м
[Sc Ac trans Ci fib]
+11.6 +7.3 75 +9 +11 1010.6 1008.0
03 13.09 В 6-11
{11}
20 км 8/0
[Ci fib]
+13.1 +7.7 70 +11 +13 1008.9 1006.4
06 13.09 В 6-11
{12}
20 км 10/3 1000 м
[Sc Ci fib]
+11.9 +4.2 59 +9 +10 1008.4 1005.9
09 13.09 СВ 4
{11}
20 км 8/0
[Ci fib]
+10.7 +3.4 61 +8 +8 1009.0 1006.5 +13.4
12 13.09 СВ 5
{10}
20 км 4/3 600 м
[Sc Ci fib]
+10.6 +4.5 66 +8 +8 1009.3 1006.7
15 13.09 СВ 3 20 км ясно +9.2 +3.6 68 +7 +7 1009.1 1006.5
21 13.09 СВ 2 20 км ясно +10.0 +4.6 69 +9 +10 1010.9 1008.3 +1.9
03 14.09 Ю 2 20 км ясно +12.6 +7.6 72 +12 +19 1010.9 1008.4
09 14.09 С 3 20 км 8/0
[Ac trans Ci fib]
+5.3 +4.3 93 +2 +2 1012.9 1010.3 +13.6
15 14.09 З 1 20 км 10/0
[Ci fib]
+5.3 +4.2 93 +4 +4 1012.7 1010.1
21 14.09 ЮЗ 1 20 км 10/10 600 м
[Sc]
+7.7 +5.9 88 +7 +7 1013.5 1010.9 +2.8
03 15.09 Ю 2 10 км слаб. ливневой дождь 10/10 300 м
[Cb cap]
+10.3 +9.2 93 +9 +9 1013.2 1010.6
09 15.09 З 1 20 км 10/10 200 м
[St]
+10.1 +9.5 96 +10 +10 1014.9 1012.3 +11.0 0.9
15 15.09 С 2 20 км ясно +5.0 +4.8 99 +2 +2 1016.5 1013.9
21 15.09 ЮЗ 1 20 км ясно +9.7 +6.9 83 +9 +11 1018.9 1016.3 +2.7
03 16.09 Ю 2 20 км ясно +11.8 +7.9 77 +11 +18 1019.0 1016.4
09 16.09 СЗ 2 20 км 3/3 200 м
[St]
+5.9 +5.3 96 +3 +3 1019.8 1017.2 +14.1
15 16.09 С 1 20 км 10/10 200 м
[St]
+7.6 +7.4 99 +7 +7 1019.3 1016.7
21 16.09 В 3 20 км 10/10 200 м
[St]
+8.5 +6.2 85 +6 +6 1018.0 1015.4 +3.1
03 17.09 В 5-10
{11}
10 км слаб. ливневой дождь 10/10 200 м
[Cb cap]
+8.2 +7.4 95 +4 +4 1012.6 1010.0
06 17.09 СВ 9-16
{16}
4000 м слаб. морось 10/10 200 м
[St]
+8.4 +7.8 96 +3 +3 1009.6 1007.0
09 17.09 СВ 8-15
{17}
4000 м ливневой дождь {морось} 10/10 200 м
[Cb cap]
+9.3 +8.9 97 +5 +5 1007.6 1005.1 +9.3 16
12 17.09 СВ 9-18
{19}
4000 м ливневой дождь {морось} 10/10 200 м
[Cb cap]
+9.2 +9.0 99 +4 +4 1004.7 1002.2
15 17.09 СВ 10-18
{22}
10 км слаб. ливневой дождь 10/10 200 м
[Cb cap]
+9.9 +9.8 99 +5 +5 1001.4 998.8
18 17.09 СВ 12-19
{26}
10 км слаб. ливневой дождь 10/10 200 м
[Cb cap]
+9.7 +9.2 97 +5 +5 999.5 997.0
21 17.09 СВ 12-20
{26}
10 км слаб. ливневой дождь 10/10 300 м
[Cb cap]
+9.6 +9.0 96 +4 +4 1000.9 998.4 +9.1 25
00 18.09 СВ 6-11
{23}
20 км {ливн. осадки} 10/10 300 м
[Sc diur, vesp]
+10.2 +8.1 87 +7 +7 1002.8 1000.3
09 18.09 СВ 3 20 км 10/10 600 м
[Sc]
+10.3 +6.3 76 +8 +8 1008.4 1005.9 +13.0 0.5

 

Местоположение метеостанции Водопадная (Камчатский край, Россия): широта 51.82 долгота 158.00 высота над уровнем моря 21 м.

В архиве по умолчанию представлена погода в Водопадной за последнюю неделю. Архивные данные за месяц целиком и за предыдущие месяцы, начиная с января 2011 года, Вы можете получить, выбрав интересующий диапазон дат из раскрывающегося списка и нажав кнопку "Ввод!".


*Определитесь, кто Вы:
робот инопланетянин человек

Внимание! Время в таблицах - всемирное. Для получения местного времени необходимо прибавить поправку, которая равна 12 ч.

Смотрите также архив погоды в соседних городах и на ближайших метеорологических станциях:

Погода в Озерной (Камчатский край, Россия) (117 км)
Погода в Петропавловск-Камчатском (Камчатский край, Россия) (124 км)
Погода в Петропавловском Маяке (Камчатский край, Россия) (127 км)
Погода в Сосновке (Камчатский край, Россия) (142 км)
Погода на Мысе Лопатка (Камчатский край, Россия) (144 км)
Погода в Петропавловск-Камч. 2 (Камчатский край, Россия) (144 км)
Погода в Начиках (Камчатский край, Россия) (146 км)
Погода в Большерецке (Камчатский край, Россия) (161 км)
Погода в Северо-Курильске (Сахалинская область, Россия) (183 км)
Погода в Пущино (Камчатский край, Россия) (262 км)

Пояснения к столбцам:

Ветер - указаны скорость ветра в м/с - средняя за 10 мин, порывы в срок и между сроками (в фигурных скобках) и направление, откуда дует ветер: С - северный, СВ - северо-восточный, В - восточный, ЮВ - юго-восточный, Ю - южный, ЮЗ - юго-западный, З - западный, СЗ - северо-западный.
Видимость - горизонтальная дальность видимости в метрах или километрах. При видимости от 1 до 10 км при отсутствии осадков обычно наблюдается дымка, при ухудшении видимости до 1 км и менее - туман. В сухую погоду видимость может ухудшаться дымом, пылью или мглою.
Явления - указаны атмосферные явления, наблюдавшиеся в срок или в последний час перед сроком; фигурными скобками обозначены явления, наблюдавшиеся между сроками (за 1-3 часа до срока); квадратными скобками обозначены град или гололедные отложения с указанием их диаметра в мм.
Облачность - указаны через наклонную черту общая и нижняя облачность в баллах и высота нижней границы облаков в метрах; квадратными скобками обозначены формы облаков: Ci - перистые, Cs - перисто-слоистые, Cc - перисто-кучевые, Ac - высококучевые, As - высокослоистые, Sc - слоисто-кучевые, Ns - слоисто-дождевые, Cu - кучевые, Cb - кучево-дождевые. Подробнее классификацию облаков см. в Атласе облаков (PDF).
T - Температура воздуха - температура, измеренная на высоте 2 м над землей.
Td - Температура точки росы - температура, при понижении до которой содержащийся в воздухе водяной пар достигнет насыщения.
f - Относительная влажность воздуха - влажноcть воздуха, измеренная на высоте 2 м над землей.
Te - Эффективная температура - температура, которую ощущает одетый по сезону человек в тени. Характеристика душности погоды. При расчете учитывается влияние влажности воздуха и скорости ветра на теплоощущения человека.
Tes - Эффективная температура на солнце - температура, которую ощущает человек, с поправкой на солнечный нагрев. Характеристика знойности погоды. Зависит от высоты солнца над горизонтом, облачности и скорости ветра. Ночью, в пасмурную погоду, а также при ветре 12 м/с и более поправка равна нулю.
P - Атмосферное давление - приведенное к уровню моря атмосферное давление.
Po - Атмосферное давление - измеренное на уровне метеостанции атмосферное давление.
Tmin - Минимальная температура - минимум температуры воздуха на высоте 2 м над землей.
Tmax - Максимальная температура - максимум температуры воздуха на высоте 2 м над землей.
R - Количество осадков - Количество выпавших осадков за период времени, мм. При наведении курсора мыши на число - период времени, за который выпало указанное количество осадков.
R24 - Количество осадков - Количество выпавших осадков за 24 часа, мм.
S - Снежный покров - Высота снежного покрова, см. При наведении курсора мыши на число - состояние снежного покрова и степень покрытия местности в баллах.